Stations météo

Publicité
Colmar, France (7197): Température de l'air & dewpoint: 19.07.2017 10:00:00 - 25.07.2017 10:00:00 (CEST)Colmar, France (7197): Température de l'air 5cm: 19.07.2017 10:00:00 - 25.07.2017 10:00:00 (CEST)Colmar, France (7197): Température de l'air -20cm & Température de l'air -100cm: 19.07.2017 10:00:00 - 25.07.2017 10:00:00 (CEST)Colmar, France (7197): Vitesse du vent & gusts: 19.07.2017 10:00:00 - 25.07.2017 10:00:00 (CEST)Colmar, France (7197): Direction du vent: 19.07.2017 10:00:00 - 25.07.2017 10:00:00 (CEST)Colmar, France (7197): reduced air pressure: 19.07.2017 10:00:00 - 25.07.2017 10:00:00 (CEST)Colmar, France (7197): visibility: 19.07.2017 10:00:00 - 25.07.2017 10:00:00 (CEST)Colmar, France (7197): Ensoleillement: 19.07.2017 10:00:00 - 25.07.2017 10:00:00 (CEST)Colmar, France (7197): Quantités de précipitations: 19.07.2017 10:00:00 - 25.07.2017 10:00:00 (CEST)
Date & Time tt [°C] td [°C] tt 5cm [°C] tt -20cm [°C] tt -100cm [°C] ff [km/h] ff [knt] fx [km/h] fx [knt] dd ppp [hPa] vv [km] sd [min] rr [mm]
25.07.2017 10:00:00 17,0 10,8 17,6 19,5 22,5 9 5 24 13 SW 1012,6 20 0 0,0
25.07.2017 09:00:00 16,7 10,1 14,3 19,5 22,5 14 8 29 16 W 1012,6 20 0 0,0
25.07.2017 08:00:00 14,6 12,1 13,6 19,7 22,5 10 6 16 9 SSW 1012,5 20 0 0,0
25.07.2017 07:00:00 13,9 12,5 13,3 19,9 22,5 8 4 19 10 SSW 1012,6 20 0 0,0
25.07.2017 06:00:00 14,0 12,4 12,9 20,2 22,6 6 3 14 8 S 1012,6 20 0 0,0
25.07.2017 05:00:00 14,0 12,7 13,4 20,4 22,6 5 3 9 5 S 1012,6 20 0 0,2
25.07.2017 04:00:00 13,9 12,9 13,5 20,6 22,6 5 3 8 5 SSE 1012,9 20 0 0,0
25.07.2017 03:00:00 14,2 12,9 13,4 20,8 22,6 2 1 9 5 S 1012,9 20 0 0,0
25.07.2017 02:00:00 13,9 12,9 12,9 21,2 22,6 6 3 14 8 SSW 1013,2 16 0 0,0
25.07.2017 01:00:00 14,1 13,1 13,2 21,6 22,6 6 4 12 6 S 1013,1 20 0 0,0
25.07.2017 00:00:00 14,8 13,5 14,3 21,9 22,6 7 4 22 12 S 1012,9 20 0 0,0
24.07.2017 23:00:00 14,9 13,4 14,3 22,2 22,6 11 6 17 9 SSW 1012,7 20 0 1,0
24.07.2017 22:00:00 15,0 13,7 14,3 22,6 22,6 5 3 16 9 SE 1012,8 19 0 0,2
24.07.2017 21:00:00 15,8 12,5 15,3 22,9 22,6 11 6 21 11 WSW 1012,6 20 5 0,0
24.07.2017 20:00:00 15,3 14,2 14,4 23,2 22,7 5 3 14 8 E 1012,4 20 0 2,4
24.07.2017 19:00:00 18,3 11,1 16,8 23,3 22,7 8 4 26 14 W 1011,9 20 0 0,0
24.07.2017 18:00:00 19,0 10,5 19,3 23,4 22,7 16 9 36 20 WSW 1011,8 20 3 0,0
24.07.2017 17:00:00 19,5 11,3 16,5 23,3 22,7 17 9 28 15 SW 1011,7 20 0 0,0
24.07.2017 16:00:00 19,7 11,2 18,3 23,1 22,7 16 9 30 16 WSW 1011,5 20 6 0,0
24.07.2017 15:00:00 20,5 11,4 21,0 22,8 22,7 13 7 25 14 SW 1011,1 20 7 0,0
24.07.2017 14:00:00 19,9 10,6 21,3 22,5 22,7 15 8 26 14 WSW 1011,4 20 0 0,0
24.07.2017 13:00:00 20,2 10,3 20,9 22,1 22,7 13 7 25 13 NW 1011,1 20 8 0,0
24.07.2017 12:00:00 19,3 10,3 20,7 21,7 22,7 11 6 21 12 WSW 1011,2 20 21 0,0
24.07.2017 11:00:00 19,0 10,0 18,8 21,4 22,8 10 5 29 16 NW 1011,2 20 35 0,0
24.07.2017 10:00:00 18,1 12,1 16,2 21,4 22,8 19 10 33 18 NW 1011,1 20 27 0,0
24.07.2017 09:00:00 16,8 14,6 15,6 21,5 22,7 13 7 35 19 WSW 1009,8 20 0 0,6
24.07.2017 08:00:00 16,3 14,8 15,0 21,8 22,8 21 11 37 20 S 1009,2 20 0 0,0
24.07.2017 07:00:00 15,9 13,9 14,8 22,1 22,8 18 10 28 15 S 1009,6 20 0 0,2
24.07.2017 06:00:00 16,9 13,2 15,9 22,3 22,8 12 7 20 11 SSW 1009,9 20 0 0,0
24.07.2017 05:00:00 16,5 13,2 16,0 22,6 22,8 11 6 21 12 SSW 1010,9 20 0 0,0
24.07.2017 04:00:00 16,6 12,9 15,1 22,9 22,8 9 5 15 8 S 1011,4 20 0 0,0
24.07.2017 03:00:00 15,9 13,6 15,0 23,2 22,9 4 2 9 5 S 1012,5 20 0 0,2
24.07.2017 02:00:00 16,7 12,4 16,2 23,5 22,9 5 3 13 7 SSW 1013,6 20 0 0,0
24.07.2017 01:00:00 17,1 11,4 15,7 23,8 22,8 7 4 11 6 S 1014,2 20 0 0,0
24.07.2017 00:00:00 17,7 11,7 16,3 24,1 22,9 5 3 9 5 S 1014,9 20 0 0,0
23.07.2017 23:00:00 18,4 11,2 15,7 24,4 22,9 6 4 10 5 S 1015,6 20 0 0,0
23.07.2017 22:00:00 16,8 11,7 15,4 24,8 22,9 3 2 6 4 S 1016,2 20 0 0,0
23.07.2017 21:00:00 19,4 11,2 18,1 25,0 22,9 2 1 14 8 S 1015,8 20 0 0,0
23.07.2017 20:00:00 21,2 10,7 21,3 25,1 22,9 8 4 18 10 W 1015,9 20 0 0,0
23.07.2017 19:00:00 22,1 10,3 23,3 25,0 22,9 10 6 37 20 W 1016,0 20 9 0,0
23.07.2017 18:00:00 22,8 9,6 24,1 24,9 22,9 19 10 34 18 W 1016,2 20 4 0,0
23.07.2017 17:00:00 22,8 9,9 23,7 24,8 22,9 18 10 40 22 W 1016,7 20 0 0,0
23.07.2017 16:00:00 22,6 8,7 23,7 24,5 22,9 24 13 40 22 SW 1017,2 20 0 0,0
23.07.2017 15:00:00 22,6 9,4 24,7 24,0 22,9 22 12 47 25 SW 1017,7 20 26 0,0
23.07.2017 14:00:00 22,2 10,7 23,4 23,5 22,9 23 12 39 21 SSW 1018,0 20 6 0,0
23.07.2017 13:00:00 22,6 10,4 22,5 23,2 22,9 26 14 40 22 SW 1018,0 20 18 0,0
23.07.2017 12:00:00 20,8 10,3 21,4 23,1 22,9 12 7 27 14 WSW 1018,2 20 0 0,0
23.07.2017 11:00:00 20,4 10,8 20,5 23,0 22,9 14 8 24 13 SW 1018,4 20 0 0,0
23.07.2017 10:00:00 19,3 11,3 20,6 23,0 23,0 15 8 24 13 SSW 1018,5 20 17 0,0
23.07.2017 09:00:00 19,3 11,6 19,5 23,1 22,9 10 5 35 19 SSW 1018,5 20 17 0,0
23.07.2017 08:00:00 19,0 12,0 18,4 23,3 23,0 16 9 29 16 SW 1018,1 20 15 0,0
23.07.2017 07:00:00 18,4 15,5 17,8 23,5 23,0 13 7 25 13 SSW 1017,6 20 24 0,0
23.07.2017 06:00:00 18,3 15,9 17,8 23,8 23,0 15 8 23 13 SSW 1017,0 20 0 0,0
23.07.2017 05:00:00 18,6 16,4 18,4 24,1 22,9 14 8 25 13 S 1016,4 20 0 0,0
23.07.2017 04:00:00 18,9 16,9 18,1 24,4 23,0 17 9 26 14 SSW 1016,1 20 0 0,0
23.07.2017 03:00:00 19,4 16,8 19,0 24,8 23,0 18 10 30 16 SSW 1015,7 20 0 0,0
23.07.2017 02:00:00 19,5 16,3 19,1 25,1 23,0 14 8 23 13 SSW 1015,6 20 0 0,0
23.07.2017 01:00:00 20,0 17,2 19,5 25,5 23,0 15 8 26 14 SSW 1015,1 20 0 0,0
23.07.2017 00:00:00 20,6 17,2 19,5 25,9 23,0 11 6 26 14 SSE 1014,3 20 0 0,0
22.07.2017 23:00:00 20,9 16,3 20,3 26,3 23,0 7 4 18 10 S 1013,5 20 0 0,0
22.07.2017 22:00:00 21,4 16,8 20,8 26,7 23,0 10 5 22 12 S 1013,5 20 0 0,0
22.07.2017 21:00:00 21,6 15,9 21,1 27,1 23,0 12 6 18 10 SSE 1012,4 20 0 0,0
22.07.2017 20:00:00 21,5 16,2 20,2 27,5 23,0 7 4 16 8 SE 1012,8 20 0 0,0
22.07.2017 19:00:00 22,7 15,0 22,6 27,6 23,0 13 7 44 24 SSW 1013,4 20 0 0,0
22.07.2017 18:00:00 27,3 15,3 28,2 27,5 23,0 21 11 45 24 SSW 1013,1 20 6 0,0
22.07.2017 17:00:00 27,8 16,4 29,4 27,1 23,0 15 8 34 18 S 1012,5 20 33 0,0
22.07.2017 16:00:00 29,5 15,6 30,6 26,5 23,0 19 10 36 20 SW 1012,6 20 58 0,0
22.07.2017 15:00:00 28,1 15,4 29,1 26,0 23,0 22 12 35 19 SSW 1012,9 20 27 0,0
22.07.2017 14:00:00 27,8 17,0 27,9 25,5 23,0 20 11 39 21 SSW 1013,0 20 26 0,0
22.07.2017 13:00:00 26,4 16,3 28,8 24,8 23,0 17 9 31 17 SSW 1013,2 20 52 0,0
22.07.2017 12:00:00 25,6 15,6 27,6 24,2 23,0 19 10 31 17 SSW 1013,6 20 60 0,0
22.07.2017 11:00:00 24,7 16,7 24,6 23,8 23,0 13 7 26 14 S 1013,7 20 60 0,0
22.07.2017 10:00:00 23,0 16,8 22,5 23,6 23,0 15 8 29 16 S 1013,8 20 60 0,0
22.07.2017 09:00:00 21,4 17,0 20,1 23,7 23,0 15 8 26 14 SSW 1013,9 20 52 0,0
22.07.2017 08:00:00 19,4 17,2 18,2 23,9 23,0 10 6 20 11 SSW 1013,8 20 60 0,0
22.07.2017 07:00:00 18,0 16,8 15,3 24,2 23,0 9 5 16 9 S 1013,5 20 39 0,0
22.07.2017 06:00:00 16,3 15,5 15,1 24,6 23,0 0 0 9 5 N 1013,7 4,1 0 0,0
22.07.2017 05:00:00 17,6 16,5 16,9 24,9 23,0 6 3 16 9 S 1013,0 20 0 0,0
22.07.2017 04:00:00 17,6 16,8 16,9 25,3 23,0 8 4 11 6 SSW 1012,8 12 0 0,0
22.07.2017 03:00:00 18,4 17,1 17,9 25,8 23,0 9 5 19 10 SSW 1012,5 20 0 0,0
22.07.2017 02:00:00 18,7 17,0 17,5 26,3 23,0 11 6 18 10 S 1012,7 20 0 0,0
22.07.2017 01:00:00 17,7 16,9 17,2 26,8 23,0 8 5 13 7 SSW 1012,9 19 0 0,4
22.07.2017 00:00:00 17,7 16,6 17,2 27,4 23,0 8 4 23 12 SSW 1013,0 20 0 0,4
21.07.2017 23:00:00 17,9 16,2 17,1 28,1 23,0 8 5 19 11 SSE 1013,0 20 0 0,0
21.07.2017 22:00:00 17,2 16,4 17,0 28,9 23,0 5 3 12 7 ESE 1011,9 20 0 0,0
21.07.2017 21:00:00 18,2 16,5 17,1 29,8 23,0 9 5 22 12 SW 1011,6 20 0 2,0
21.07.2017 20:00:00 18,4 16,0 17,1 30,5 23,0 23 12 50 27 S 1012,4 6 0 9,8
21.07.2017 19:00:00 25,1 18,8 25,1 30,6 23,0 9 5 15 8 NW 1009,2 20 0 0,0
21.07.2017 18:00:00 27,8 17,0 28,7 30,3 23,0 4 2 20 11 NNE 1008,8 20 5 0,0
21.07.2017 17:00:00 29,7 16,8 33,8 29,6 23,0 9 5 29 15 NE 1008,7 20 60 0,0
21.07.2017 16:00:00 28,9 15,8 35,3 28,7 23,0 7 4 16 9 NE 1009,6 20 60 0,0
21.07.2017 15:00:00 28,8 16,0 32,8 27,7 23,0 8 4 22 12 N 1010,4 20 57 0,0
21.07.2017 14:00:00 27,5 15,5 32,0 26,7 23,0 11 6 24 13 N 1011,3 20 60 0,0
21.07.2017 13:00:00 26,0 14,5 30,2 25,8 23,0 8 5 21 11 N 1012,1 20 60 0,0
21.07.2017 12:00:00 24,8 13,7 27,1 25,1 23,0 12 7 21 12 N 1012,8 20 60 0,0
21.07.2017 11:00:00 23,6 13,5 24,5 24,7 23,0 11 6 21 12 N 1013,4 20 60 0,0
21.07.2017 10:00:00 22,4 13,5 22,6 24,7 23,0 11 6 21 12 N 1013,8 20 60 0,0
21.07.2017 09:00:00 20,6 14,7 19,5 24,8 23,0 13 7 19 10 N 1014,3 20 52 0,0
21.07.2017 08:00:00 18,7 15,6 18,6 25,0 22,9 5 3 10 6 N 1014,6 20 18 0,0
21.07.2017 07:00:00 17,8 15,6 17,6 25,3 22,9 4 2 10 6 NNW 1014,6 20 2 0,0
21.07.2017 06:00:00 17,6 15,6 16,8 25,6 22,9 6 3 11 6 N 1014,7 20 0 0,0
21.07.2017 05:00:00 17,0 15,7 16,1 25,9 22,9 2 1 4 2 NNW 1014,5 20 0 0,0
21.07.2017 04:00:00 16,9 15,6 16,2 26,4 22,9 2 1 9 5 ENE 1014,5 19 0 0,0
21.07.2017 03:00:00 17,4 15,4 16,9 26,8 22,9 0 0 6 3 N 1014,7 20 0 0,0
21.07.2017 02:00:00 17,8 15,6 16,1 27,3 22,9 5 3 9 5 SSW 1014,9 20 0 0,0
21.07.2017 01:00:00 17,3 15,5 15,3 27,9 22,9 4 2 8 4 SSE 1014,9 20 0 0,0
21.07.2017 00:00:00 18,1 15,4 16,4 28,4 22,9 4 2 6 4 SW 1014,6 20 0 0,0
20.07.2017 23:00:00 19,8 16,1 18,6 29,0 22,9 0 0 6 3 N 1014,6 20 0 0,0
20.07.2017 22:00:00 20,6 15,8 19,4 29,5 22,9 3 2 12 7 NNW 1014,3 20 0 0,0
20.07.2017 21:00:00 23,0 15,6 22,5 30,0 22,8 7 4 18 10 SW 1013,1 20 35 0,0
20.07.2017 20:00:00 24,3 15,5 24,7 30,3 22,8 14 7 22 12 WSW 1012,7 20 53 0,0
20.07.2017 19:00:00 25,3 17,7 24,1 30,6 22,8 6 3 11 6 NW 1012,6 20 40 0,0
20.07.2017 18:00:00 22,1 18,1 17,7 30,6 22,8 5 3 60 33 W 1012,9 20 0 3,1
20.07.2017 17:00:00 28,0 13,5 29,8 30,0 22,8 18 10 36 19 SW 1012,0 20 34 0,0
20.07.2017 16:00:00 29,8 12,7 32,0 29,2 22,7 20 11 42 23 SW 1011,8 20 52 0,0
20.07.2017 15:00:00 29,8 12,7 29,9 28,4 22,7 21 12 40 21 WSW 1011,8 20 38 0,0
20.07.2017 14:00:00 27,6 13,5 30,1 27,7 22,7 11 6 24 13 S 1012,3 20 42 0,0
20.07.2017 13:00:00 25,9 15,0 26,0 27,3 22,7 6 3 21 11 NNW 1012,7 20 25 0,0
20.07.2017 12:00:00 24,3 15,2 23,3 27,3 22,7 14 8 27 15 SSW 1013,1 20 10 0,0
20.07.2017 11:00:00 21,8 15,4 20,6 27,5 22,7 14 7 29 16 S 1013,6 20 0 0,0
20.07.2017 10:00:00 - - - - - - - - - - - - - -
20.07.2017 09:00:00 - - - - - - - - - - - - - -
20.07.2017 08:00:00 - - - - - - - - - - - - - -
20.07.2017 07:00:00 - - - - - - - - - - - - - -
20.07.2017 06:00:00 - - - - - - - - - - - - - -
20.07.2017 05:00:00 - - - - - - - - - - - - - -
20.07.2017 04:00:00 - - - - - - - - - - - - - -
20.07.2017 03:00:00 - - - - - - - - - - - - - -
20.07.2017 02:00:00 - - - - - - - - - - - - - -
20.07.2017 01:00:00 - - - - - - - - - - - - - -
20.07.2017 00:00:00 - - - - - - - - - - - - - -
19.07.2017 23:00:00 - - - - - - - - - - - - - -
19.07.2017 22:00:00 - - - - - - - - - - - - - -
19.07.2017 21:00:00 - - - - - - - - - - - - - -
19.07.2017 20:00:00 - - - - - - - - - - - - - -
19.07.2017 19:00:00 - - - - - - - - - - - - - -
19.07.2017 18:00:00 - - - - - - - - - - - - - -
19.07.2017 17:00:00 - - - - - - - - - - - - - -
19.07.2017 16:00:00 - - - - - - - - - - - - - -
19.07.2017 15:00:00 - - - - - - - - - - - - - -
19.07.2017 14:00:00 - - - - - - - - - - - - - -
19.07.2017 13:00:00 - - - - - - - - - - - - - -
19.07.2017 12:00:00 - - - - - - - - - - - - - -
19.07.2017 11:00:00 - - - - - - - - - - - - - -
19.07.2017 10:00:00 - - - - - - - - - - - - - -

tt = Température de l'air
td = dewpoint
tt 5cm = Température de l'air 5cm
tt -20cm = Température de l'air -20cm
tt -100cm = Température de l'air -100cm
ff = Vitesse du vent
fx = gusts
dd = Direction du vent
ppp = reduced air pressure
vv = visibility
sd = Ensoleillement
rr = Quantités de précipitations

stations d'obs. à proximité